Wind_Speed
19 19 19 20 21 19 19 19 20 20 19 20 19 19 18 20 23 22 30 24 16 17 14 11 18 25 19 15 16 14 3 7 7 6 2 20 6 13 25 7 13 7 7 8 35
20 20 20 21 22 21 21 22 21 20 20 19 19 18 17 19 24 31 25 22 22 21 19 20 17 25 17 16 10 7 6 8 5 6 2 9 9 11 7 5 6 23 14 8 28
22 22 22 24 23 22 21 22 23 23 18 19 18 18 16 15 22 25 6 3 15 23 22 24 15 18 15 13 13 5 8 3 4 20 21 10 12 15 4 2 9 16 19 7 8
23 24 25 27 25 26 25 25 23 22 23 19 19 18 15 11 6 12 7 9 6 23 23 20 23 8 7 9 10 5 6 10 7 18 10 5 15 7 6 6 11 15 15 3 9
25 25 26 27 28 27 25 24 23 22 21 21 18 17 16 14 27 14 13 7 7 17 26 21 21 13 6 6 10 8 4 6 15 25 23 12 6 4 9 5 9 12 15 15 14
26 27 27 27 28 28 27 27 25 23 22 22 20 19 22 26 38 32 35 30 13 14 24 25 14 25 5 10 20 6 21 18 25 26 18 10 7 7 17 16 16 11 8 13 19
30 30 30 30 30 29 29 29 31 30 28 26 23 21 30 33 27 15 12 19 17 19 21 25 26 18 13 3 25 25 5 8 19 21 7 5 9 6 10 15 17 13 10 1 4
28 27 27 28 29 30 29 28 31 33 33 31 26 20 29 23 33 38 31 30 26 26 27 21 26 22 6 8 6 11 4 14 11 11 7 11 20 6 11 16 22 16 12 7 8
29 26 28 27 27 28 30 33 35 38 35 33 20 17 19 20 28 34 31 31 27 28 27 24 23 14 6 4 4 5 12 6 5 8 4 10 13 5 13 15 21 26 19 20 20
29 29 30 28 28 28 28 31 34 24 14 7 14 7 23 20 13 8 10 31 25 18 23 29 15 6 6 6 10 4 5 3 6 5 7 6 4 4 7 11 13 24 25 26 24
33 31 30 29 29 28 28 29 9 3 8 11 11 19 24 10 9 17 14 19 24 13 12 26 13 17 17 10 4 2 6 8 5 8 6 8 6 7 8 15 12 21 24 21 20
33 32 31 28 27 28 25 17 13 10 13 24 32 37 44 36 24 32 15 17 16 14 18 13 21 13 12 9 12 12 6 5 4 6 12 7 10 7 7 8 13 21 24 26 27
33 32 30 31 32 22 8 15 13 17 8 23 35 34 38 33 33 42 17 17 19 17 20 16 13 16 16 15 16 16 13 4 4 5 1 2 6 2 6 13 24 29 32 31 29
35 34 34 33 25 8 23 15 13 12 4 8 4 8 4 18 16 30 32 17 11 21 16 13 9 23 18 21 16 16 8 8 4 5 4 2 7 6 6 17 19 25 28 30 26
38 39 36 26 29 29 21 3 9 3 5 4 5 3 21 18 6 16 29 19 21 15 13 12 23 20 23 17 16 9 8 8 8 5 4 5 1 7 4 17 21 20 35 34 29
44 41 30 16 14 17 6 6 8 2 7 4 2 10 17 16 26 6 20 20 16 14 13 11 24 16 17 16 18 6 6 4 2 5 5 6 4 16 13 24 18 11 26 30 30
44 23 10 11 14 7 2 3 1 3 6 2 5 12 19 6 19 20 18 17 9 16 16 20 16 20 13 14 9 14 7 2 1 2 12 8 6 20 9 19 22 17 23 30 32
36 13 11 12 17 5 5 3 5 5 6 14 15 8 6 8 8 19 15 17 17 5 12 16 13 18 17 8 12 13 10 5 5 5 6 6 12 8 12 28 24 27 26 29 29
30 4 4 7 18 5 7 3 4 4 7 11 17 2 5 5 8 14 13 19 17 16 6 13 11 10 16 9 15 7 7 8 5 0 4 5 9 15 17 14 6 15 24 24 19
26 9 8 13 18 11 2 5 5 7 17 18 10 2 4 8 7 7 12 8 22 16 7 5 6 9 17 14 12 9 8 4 3 6 5 2 5 2 16 11 8 10 16 22 28
16 8 11 14 16 1 3 5 11 17 16 3 3 2 4 3 3 4 7 3 21 19 14 1 3 7 16 14 14 5 6 5 6 5 5 1 6 4 13 25 15 10 28 33 35
14 4 16 17 2 0 3 5 8 10 7 11 5 8 5 3 2 2 4 5 19 21 15 3 3 0 8 7 16 10 9 7 5 3 2 4 6 14 22 6 16 22 34 40 37
14 6 12 16 6 5 6 8 6 9 8 3 5 6 3 4 3 7 8 14 14 15 11 5 1 2 4 4 4 7 6 7 6 4 6 5 3 14 22 9 15 31 31 33 40
9 4 8 6 16 8 7 7 12 16 6 10 6 4 3 3 8 4 4 2 12 14 10 12 3 5 5 5 4 6 6 8 7 4 7 5 6 1 18 8 12 24 29 32 39
14 4 4 6 10 14 9 4 9 9 9 15 2 10 4 2 1 2 4 6 7 19 5 6 2 3 8 8 6 7 5 6 6 10 6 10 11 16 10 8 9 25 32 34 36
9 6 9 15 18 14 8 6 8 10 3 7 13 10 9 4 4 4 5 3 5 4 5 4 1 4 7 11 9 7 14 9 13 10 8 18 12 20 14 6 12 26 21 24 29
17 20 9 10 9 10 10 11 7 14 7 8 8 2 6 4 7 4 4 8 4 3 4 4 4 4 3 9 3 7 9 8 7 8 22 12 14 15 10 12 9 20 17 17 26
Wind_Direction
330 331 332 332 324 321 318 314 311 304 297 296 294 296 300 300 288 282 269 263 266 240 236 215 221 213 218 233 216 212 182 219 219 217 248 302 330 299 306 291 47 9 40 276 188
324 326 328 329 326 321 315 313 307 307 305 300 298 293 299 303 299 281 278 276 253 247 227 210 205 198 207 222 219 188 206 228 202 226 257 278 325 347 289 288 47 29 58 107 168
320 320 323 325 325 321 317 313 307 305 300 300 300 298 300 305 309 285 126 228 249 213 220 206 193 191 216 216 206 212 230 213 207 242 262 274 305 343 275 45 86 62 35 165 157
320 318 320 318 317 317 314 310 306 303 300 294 296 295 293 286 256 157 131 82 14 192 199 202 202 193 182 215 211 247 248 237 270 270 268 253 262 279 342 76 84 81 62 97 221
317 316 312 311 311 314 314 314 308 302 304 297 287 290 284 246 239 201 209 347 2 197 199 191 202 195 174 189 241 243 265 258 243 258 265 278 252 260 265 263 21 62 62 54 225
305 306 306 304 307 308 307 308 305 301 301 303 291 280 266 253 258 252 255 266 286 220 206 204 205 206 211 208 196 233 227 251 253 250 262 242 241 212 254 267 310 12 45 71 81
308 304 302 300 299 298 299 301 302 299 294 300 298 269 262 245 254 254 241 235 217 231 224 215 206 184 215 259 229 235 250 221 236 244 212 170 272 223 247 287 304 343 356 79 136
323 320 311 304 299 296 296 296 293 292 291 296 297 265 263 260 268 266 241 239 213 209 218 236 219 217 225 283 341 204 190 236 233 229 219 190 257 220 263 295 294 304 331 324 307
324 325 320 317 311 303 298 292 284 288 290 288 272 243 272 267 249 255 245 237 217 217 227 221 211 210 215 153 322 229 224 212 222 221 151 189 250 236 236 271 282 286 294 305 300
332 327 321 319 316 315 313 306 301 298 281 230 232 246 253 240 258 277 261 218 210 194 210 207 190 171 193 153 211 233 165 196 206 256 192 209 227 272 246 268 267 286 292 291 298
335 331 326 321 318 314 314 320 343 300 214 208 208 223 264 269 295 273 266 195 200 207 182 199 196 205 203 193 237 266 199 202 208 227 167 208 206 230 249 270 266 274 282 278 286
331 330 328 325 322 317 302 280 271 330 287 264 253 248 256 266 281 268 239 163 180 191 180 179 210 192 207 182 202 240 227 219 255 190 198 221 237 228 231 242 250 269 264 270 271
334 333 329 326 320 320 294 277 312 317 270 281 251 243 243 235 243 263 224 192 182 185 194 190 201 181 193 205 204 218 219 177 179 173 267 105 294 271 270 255 258 257 259 264 267
336 331 329 328 324 296 288 290 287 317 287 276 225 15 246 233 261 248 231 216 176 199 195 216 181 182 197 212 202 215 184 208 209 147 197 97 263 282 263 259 252 246 249 249 249
338 332 327 321 302 294 318 288 14 6 281 301 56 69 326 206 227 234 219 224 194 166 182 190 184 187 197 204 198 219 188 194 218 189 138 161 98 247 298 271 249 246 240 240 246
339 335 332 337 317 356 30 8 347 208 250 303 56 341 344 301 223 301 168 208 221 181 194 207 183 187 198 209 201 179 165 180 195 185 240 178 175 272 257 241 258 219 227 230 240
343 347 352 341 329 351 345 1 227 175 320 257 346 354 325 269 209 224 171 187 189 170 193 203 218 197 176 194 205 183 141 225 224 210 236 124 228 238 258 244 232 237 223 226 227
349 10 64 38 345 322 162 57 232 247 254 303 350 353 319 328 224 214 177 188 216 155 180 187 213 187 201 183 193 196 166 146 168 206 247 139 251 244 238 248 254 235 214 196 206
350 355 341 337 359 235 147 196 238 272 333 321 335 337 323 346 8 172 224 193 200 197 147 179 209 198 207 192 182 189 168 181 135 285 185 219 272 274 254 252 200 155 171 182 180
351 349 325 334 336 178 152 249 249 289 313 306 299 246 341 328 338 153 160 246 193 191 196 122 182 199 209 199 215 159 167 113 26 161 239 287 314 301 354 258 143 128 151 124 144
4 347 347 337 336 158 281 266 290 285 293 256 212 230 249 293 327 332 157 246 185 189 197 84 101 217 182 204 199 144 171 72 117 148 174 58 271 259 325 322 150 138 126 128 129
0 331 340 340 24 230 277 271 295 292 282 235 260 204 207 212 275 265 212 232 182 202 199 174 95 296 196 193 201 177 177 142 128 211 118 138 273 357 332 280 131 130 132 136 134
340 293 347 352 355 333 295 295 291 299 298 236 227 180 165 193 215 225 194 235 187 185 184 161 296 352 79 63 3 151 158 153 116 108 191 132 272 0 321 8 111 126 132 134 132
1 333 333 332 337 327 318 328 332 316 316 318 62 153 117 228 211 277 175 217 236 188 152 133 167 154 172 179 165 128 164 152 142 128 160 169 127 209 287 2 68 101 112 117 122
15 337 333 309 332 335 332 278 326 350 327 357 32 15 351 212 43 130 9 353 287 147 94 113 123 81 53 23 82 30 170 168 148 146 134 178 149 151 266 7 10 100 110 115 118
4 340 309 294 306 333 348 333 327 325 271 5 19 10 10 54 2 47 30 341 78 2 96 23 79 58 27 360 56 67 28 59 87 103 68 124 123 144 267 69 48 72 86 111 118
353 341 290 299 324 346 339 341 321 351 328 359 343 331 337 326 297 282 236 267 284 354 99 80 99 63 18 334 5 36 350 326 84 143 139 144 146 151 156 100 32 70 98 123 123
Height
1509 1507 1504 1501 1498 1496 1494 1491 1488 1486 1485 1483 1482 1481 1479 1477 1475 1474 1467 1470 1474 1476 1478 1480 1481 1485 1489 1489 1492 1494 1501 1500 1495 1492 1490 1483 1487 1485 1482 1479 1483 1481 1473 1479 1476
1506 1504 1501 1499 1496 1494 1491 1488 1486 1483 1481 1480 1478 1477 1476 1474 1471 1465 1464 1465 1466 1470 1471 1475 1477 1481 1485 1485 1487 1486 1492 1487 1482 1484 1486 1484 1485 1485 1481 1475 1477 1477 1474 1481 1483
1504 1501 1498 1496 1493 1490 1487 1485 1482 1479 1477 1476 1475 1475 1473 1471 1468 1457 1459 1457 1457 1461 1466 1471 1476 1478 1481 1481 1480 1479 1480 1478 1478 1482 1484 1483 1483 1482 1481 1479 1478 1479 1477 1483 1493
1500 1498 1495 1492 1489 1486 1483 1480 1477 1475 1473 1472 1471 1471 1471 1471 1470 1453 1452 1452 1453 1455 1462 1466 1471 1475 1476 1478 1476 1480 1472 1476 1479 1480 1480 1481 1482 1480 1482 1484 1484 1479 1481 1483 1489
1497 1494 1491 1488 1485 1481 1478 1475 1473 1471 1468 1467 1466 1466 1466 1464 1453 1452 1450 1450 1453 1455 1457 1462 1466 1470 1473 1473 1476 1474 1472 1474 1478 1478 1475 1480 1481 1479 1477 1480 1486 1486 1482 1483 1487
1492 1489 1486 1483 1479 1476 1473 1471 1468 1465 1463 1462 1462 1462 1460 1450 1442 1446 1447 1449 1454 1454 1455 1460 1462 1466 1469 1469 1469 1465 1471 1473 1474 1473 1472 1476 1477 1476 1474 1473 1478 1486 1486 1486 1483
1486 1483 1480 1477 1473 1470 1467 1464 1462 1460 1457 1456 1455 1455 1447 1436 1436 1437 1441 1445 1450 1453 1453 1456 1459 1464 1467 1465 1464 1466 1471 1471 1467 1469 1470 1472 1475 1472 1472 1470 1472 1479 1487 1489 1494
1480 1477 1473 1469 1466 1464 1460 1458 1454 1451 1450 1449 1448 1448 1431 1428 1428 1427 1432 1437 1443 1447 1449 1453 1457 1461 1462 1461 1458 1465 1468 1473 1462 1465 1465 1471 1470 1467 1469 1469 1466 1474 1484 1489 1489
1475 1471 1466 1463 1459 1456 1452 1449 1445 1442 1441 1441 1442 1443 1427 1418 1414 1411 1420 1427 1438 1443 1447 1451 1456 1458 1459 1464 1470 1463 1465 1471 1465 1458 1463 1467 1466 1462 1465 1468 1466 1467 1474 1483 1486
1472 1467 1462 1458 1454 1451 1446 1441 1434 1432 1430 1433 1436 1441 1422 1406 1408 1407 1411 1419 1429 1438 1443 1449 1451 1453 1456 1461 1466 1464 1466 1462 1467 1458 1461 1465 1465 1461 1462 1464 1466 1463 1467 1471 1476
1468 1463 1457 1452 1448 1445 1441 1436 1433 1431 1428 1425 1423 1417 1406 1408 1408 1407 1410 1413 1425 1429 1433 1440 1445 1441 1445 1451 1451 1449 1457 1461 1459 1456 1460 1463 1464 1462 1461 1461 1462 1460 1461 1465 1472
1464 1458 1452 1447 1442 1439 1436 1435 1431 1432 1422 1415 1410 1409 1401 1407 1405 1399 1407 1408 1415 1417 1425 1435 1429 1435 1442 1447 1450 1451 1456 1459 1454 1452 1456 1460 1462 1459 1457 1458 1459 1459 1459 1460 1465
1459 1454 1448 1442 1436 1433 1430 1429 1430 1430 1423 1398 1396 1391 1390 1401 1397 1391 1402 1397 1401 1410 1410 1415 1422 1431 1434 1441 1445 1445 1450 1455 1458 1453 1453 1458 1464 1461 1456 1455 1453 1455 1455 1456 1459
1455 1449 1444 1439 1435 1430 1427 1429 1429 1429 1420 1392 1386 1388 1393 1397 1386 1383 1390 1396 1395 1400 1409 1412 1415 1420 1428 1430 1436 1444 1440 1447 1452 1461 1476 1462 1475 1462 1458 1452 1448 1446 1448 1449 1452
1449 1443 1438 1435 1430 1426 1421 1422 1423 1426 1422 1380 1387 1387 1387 1386 1372 1369 1379 1389 1382 1387 1400 1403 1408 1417 1421 1421 1429 1435 1437 1446 1450 1460 1467 1469 1483 1458 1457 1450 1437 1435 1438 1442 1445
1443 1435 1430 1427 1426 1422 1419 1420 1422 1423 1413 1383 1384 1381 1380 1378 1375 1369 1373 1386 1386 1388 1395 1400 1401 1408 1412 1419 1422 1429 1437 1445 1448 1455 1472 1459 1468 1444 1446 1433 1429 1427 1429 1431 1438
1439 1430 1426 1424 1423 1421 1421 1421 1422 1425 1388 1380 1379 1377 1379 1370 1369 1372 1369 1382 1383 1395 1399 1400 1399 1402 1406 1418 1421 1427 1445 1472 1478 1476 1459 1455 1465 1438 1427 1422 1420 1419 1422 1427 1435
1436 1431 1427 1423 1420 1419 1420 1425 1420 1390 1386 1377 1376 1374 1378 1370 1363 1369 1366 1378 1379 1378 1394 1401 1412 1395 1396 1405 1417 1422 1435 1465 1468 1471 1453 1449 1449 1431 1415 1410 1412 1411 1417 1424 1433
1432 1429 1426 1422 1418 1416 1420 1417 1411 1390 1383 1377 1379 1381 1376 1367 1370 1366 1369 1366 1370 1373 1385 1394 1398 1388 1392 1396 1407 1421 1436 1432 1448 1446 1457 1449 1433 1412 1407 1404 1404 1408 1416 1424 1432
1430 1427 1424 1421 1416 1415 1418 1409 1403 1397 1389 1384 1382 1383 1382 1376 1372 1360 1369 1363 1367 1370 1371 1379 1401 1385 1388 1397 1400 1409 1416 1441 1455 1467 1462 1445 1443 1433 1419 1404 1405 1412 1416 1424 1433
1432 1428 1425 1425 1420 1418 1412 1406 1397 1392 1390 1385 1382 1384 1384 1383 1379 1369 1360 1356 1360 1365 1369 1377 1388 1388 1386 1395 1402 1409 1418 1434 1442 1450 1463 1471 1453 1426 1426 1418 1405 1415 1416 1427 1434
1435 1432 1427 1425 1422 1420 1415 1406 1399 1388 1382 1377 1376 1380 1383 1383 1379 1371 1361 1356 1354 1359 1375 1378 1391 1397 1391 1383 1385 1393 1409 1422 1446 1449 1451 1459 1455 1425 1422 1411 1405 1414 1420 1430 1438
1439 1434 1429 1427 1424 1417 1410 1403 1396 1387 1381 1376 1373 1379 1380 1385 1378 1372 1358 1353 1356 1362 1372 1380 1398 1409 1394 1392 1389 1395 1399 1406 1417 1430 1439 1449 1450 1434 1436 1425 1416 1417 1427 1434 1440
1444 1439 1432 1428 1426 1423 1414 1403 1396 1386 1376 1371 1371 1375 1379 1380 1379 1369 1359 1357 1360 1362 1369 1374 1393 1399 1411 1396 1394 1394 1394 1398 1410 1434 1433 1433 1445 1454 1450 1431 1427 1426 1432 1437 1441
1451 1447 1444 1434 1423 1422 1417 1412 1404 1394 1384 1377 1371 1374 1373 1370 1369 1370 1365 1366 1358 1363 1371 1377 1394 1386 1391 1390 1388 1393 1389 1389 1400 1410 1426 1433 1438 1442 1447 1437 1435 1435 1438 1442 1447
1456 1453 1445 1437 1429 1421 1416 1411 1407 1398 1392 1381 1378 1376 1375 1375 1377 1377 1378 1383 1370 1366 1371 1379 1398 1394 1404 1397 1392 1404 1403 1398 1399 1407 1416 1425 1437 1440 1442 1443 1445 1443 1448 1452 1454
1457 1453 1447 1437 1432 1426 1421 1414 1409 1402 1390 1386 1384 1380 1378 1378 1378 1380 1384 1383 1379 1379 1376 1386 1397 1410 1418 1407 1398 1418 1417 1414 1406 1408 1411 1428 1431 1438 1448 1449 1454 1454 1457 1460 1459